MBEST EGLF-EKVG

Flight info

Callsign MBEST
Flight time 1h 12m
Altitude 24000
Route ODH DCT GOGSI DCT WOD DCT BENSU M605 DTY Y53 SAPCO N57 TNT/N0479F230 M868 TIPIL/N0480F240 N57 POL N601 TLA/N0479F250 N864 IBOLU/N0494F470 DCT SOXON DCT NALAN DCT PEVAB DCT VGC07 DCT MAGNI DCT MY
Aircraft C750/M-SBDE3FGHRWXY/S

Departure

Time 2026-04-26 13:13
Airport Farnborough Airport (EGLF)

Arrival

Time 2026-04-26 14:25
Airport Vágar Airport (EKVG)
Time Latitude Longitude Altitude Speed Heading
2026-04-26 12:48 51.28133 -0.77689 217 ft 0 kts 306°
2026-04-26 13:06 51.28140 -0.77708 218 ft 7 kts 292°
2026-04-26 13:07 51.28117 -0.77782 219 ft 8 kts 214°
2026-04-26 13:07 51.28042 -0.77857 219 ft 15 kts 204°
2026-04-26 13:07 51.27925 -0.77906 220 ft 17 kts 211°
2026-04-26 13:07 51.27834 -0.78012 220 ft 18 kts 215°
2026-04-26 13:08 51.27731 -0.78131 220 ft 18 kts 216°
2026-04-26 13:08 51.27662 -0.78215 223 ft 9 kts 229°
2026-04-26 13:08 51.27610 -0.78312 221 ft 13 kts 220°
2026-04-26 13:08 51.27540 -0.78411 220 ft 13 kts 221°
2026-04-26 13:09 51.27475 -0.78501 221 ft 12 kts 221°
2026-04-26 13:09 51.27392 -0.78613 221 ft 20 kts 220°
2026-04-26 13:09 51.27316 -0.78720 224 ft 8 kts 209°
2026-04-26 13:09 51.27303 -0.78722 224 ft 0 kts 172°
2026-04-26 13:10 51.27273 -0.78700 223 ft 12 kts 148°
2026-04-26 13:10 51.27251 -0.78625 224 ft 6 kts 62°
2026-04-26 13:11 51.27255 -0.78614 224 ft 0 kts 62°
2026-04-26 13:12 51.27255 -0.78612 224 ft 0 kts 62°
2026-04-26 13:13 51.27439 -0.78062 220 ft 115 kts 63°
2026-04-26 13:13 51.27872 -0.76737 473 ft 153 kts 63°
2026-04-26 13:13 51.28352 -0.75107 1000 ft 173 kts 65°
2026-04-26 13:14 51.29198 -0.73560 1472 ft 192 kts 27°
2026-04-26 13:14 51.30392 -0.73173 2665 ft 162 kts 358°
2026-04-26 13:14 51.31400 -0.73595 3741 ft 147 kts 334°
2026-04-26 13:14 51.32336 -0.74531 4242 ft 172 kts 326°
2026-04-26 13:15 51.33427 -0.75651 4640 ft 200 kts 327°
2026-04-26 13:15 51.34671 -0.76923 5046 ft 223 kts 327°
2026-04-26 13:15 51.35986 -0.78275 5841 ft 224 kts 327°
2026-04-26 13:15 51.36873 -0.79189 6374 ft 226 kts 327°
2026-04-26 13:16 51.38655 -0.81037 7445 ft 230 kts 327°
2026-04-26 13:16 51.40059 -0.82485 8318 ft 232 kts 327°
2026-04-26 13:16 51.41381 -0.83849 9070 ft 235 kts 327°
2026-04-26 13:16 51.42781 -0.85295 9635 ft 251 kts 327°
2026-04-26 13:17 51.46158 -0.88259 10226 ft 306 kts 344°
2026-04-26 13:17 51.48334 -0.88956 10425 ft 333 kts 351°
2026-04-26 13:18 51.53084 -0.90300 11684 ft 349 kts 347°
2026-04-26 13:18 51.55478 -0.91137 12388 ft 355 kts 347°
2026-04-26 13:18 51.60393 -0.92680 13803 ft 363 kts 349°
2026-04-26 13:19 51.62874 -0.93469 14485 ft 367 kts 348°
2026-04-26 13:19 51.65389 -0.94294 15152 ft 370 kts 348°
2026-04-26 13:19 51.67960 -0.95126 15811 ft 374 kts 348°
2026-04-26 13:19 51.70498 -0.95934 16491 ft 377 kts 348°
2026-04-26 13:20 51.73095 -0.96766 17161 ft 381 kts 348°
2026-04-26 13:20 51.75704 -0.97610 17831 ft 385 kts 348°
2026-04-26 13:20 51.78343 -0.98465 18507 ft 389 kts 348°
2026-04-26 13:20 51.81017 -0.99328 19181 ft 393 kts 348°
2026-04-26 13:21 51.83710 -1.00197 19859 ft 397 kts 348°
2026-04-26 13:21 51.85513 -1.00781 20311 ft 399 kts 348°
2026-04-26 13:21 51.89199 -1.01976 21183 ft 405 kts 348°
2026-04-26 13:21 51.91988 -1.02880 21820 ft 409 kts 348°
2026-04-26 13:22 51.94776 -1.03785 22430 ft 413 kts 348°
2026-04-26 13:22 51.97611 -1.04708 23030 ft 417 kts 348°
2026-04-26 13:22 52.00430 -1.05626 23607 ft 420 kts 348°
2026-04-26 13:22 52.03355 -1.06579 24189 ft 424 kts 348°
2026-04-26 13:23 52.06256 -1.07526 24741 ft 428 kts 348°
2026-04-26 13:24 52.26661 -1.17180 28293 ft 452 kts 338°
2026-04-26 13:25 52.29099 -1.18797 28701 ft 455 kts 338°
2026-04-26 13:25 52.32104 -1.20830 29193 ft 458 kts 337°
2026-04-26 13:25 52.34938 -1.22760 29637 ft 461 kts 337°
2026-04-26 13:25 52.37914 -1.24767 30089 ft 465 kts 337°
2026-04-26 13:26 52.40705 -1.26643 30504 ft 468 kts 337°
2026-04-26 13:26 52.43780 -1.28724 30933 ft 471 kts 337°
2026-04-26 13:26 52.46706 -1.30715 31466 ft 460 kts 337°
2026-04-26 13:27 52.52699 -1.34787 31982 ft 468 kts 337°
2026-04-26 13:27 52.55737 -1.36734 32590 ft 466 kts 340°
2026-04-26 13:27 52.58777 -1.38549 33175 ft 465 kts 340°
2026-04-26 13:27 52.61813 -1.40377 33758 ft 464 kts 339°
2026-04-26 13:28 52.64844 -1.42220 34345 ft 463 kts 339°
2026-04-26 13:28 52.67868 -1.44056 34932 ft 462 kts 339°
2026-04-26 13:28 52.70887 -1.45882 35501 ft 460 kts 340°
2026-04-26 13:28 52.73855 -1.47680 36066 ft 459 kts 339°
2026-04-26 13:29 52.76859 -1.49508 36603 ft 459 kts 339°
2026-04-26 13:29 52.78877 -1.50739 36943 ft 459 kts 339°
2026-04-26 13:29 52.82888 -1.53184 37631 ft 459 kts 339°
2026-04-26 13:29 52.85879 -1.55009 38151 ft 458 kts 339°
2026-04-26 13:30 52.88875 -1.56842 38641 ft 458 kts 339°
2026-04-26 13:30 52.91874 -1.58679 39143 ft 458 kts 339°
2026-04-26 13:30 52.94863 -1.60513 39622 ft 459 kts 339°
2026-04-26 13:30 52.97860 -1.62354 40098 ft 459 kts 339°
2026-04-26 13:31 53.00859 -1.64200 40574 ft 459 kts 339°
2026-04-26 13:31 53.03854 -1.66045 41031 ft 459 kts 339°
2026-04-26 13:31 53.06853 -1.67896 41474 ft 460 kts 339°
2026-04-26 13:31 53.09861 -1.69755 41928 ft 460 kts 339°
2026-04-26 13:32 53.12870 -1.71619 42345 ft 460 kts 339°
2026-04-26 13:32 53.15869 -1.73479 42745 ft 460 kts 339°
2026-04-26 13:32 53.18869 -1.75342 43145 ft 460 kts 339°
2026-04-26 13:32 53.21887 -1.77220 43550 ft 460 kts 339°
2026-04-26 13:33 53.24890 -1.79091 43913 ft 461 kts 339°
2026-04-26 13:33 53.27878 -1.80956 44295 ft 460 kts 339°
2026-04-26 13:33 53.30941 -1.82870 44651 ft 460 kts 339°
2026-04-26 13:33 53.33852 -1.84692 44987 ft 461 kts 339°
2026-04-26 13:34 53.36863 -1.86579 45292 ft 461 kts 339°
2026-04-26 13:34 53.39870 -1.88467 45588 ft 462 kts 339°
2026-04-26 13:34 53.42841 -1.90335 45881 ft 462 kts 339°
2026-04-26 13:34 53.44887 -1.91623 46119 ft 461 kts 339°
2026-04-26 13:35 53.48908 -1.94158 46540 ft 460 kts 339°
2026-04-26 13:35 53.51918 -1.96060 46760 ft 461 kts 339°
2026-04-26 13:35 53.54925 -1.97961 47021 ft 461 kts 339°
2026-04-26 13:35 53.57930 -1.99862 47291 ft 461 kts 339°
2026-04-26 13:36 53.60936 -2.01768 47544 ft 460 kts 339°
2026-04-26 13:36 53.63897 -2.03648 47734 ft 461 kts 339°
2026-04-26 13:36 53.66867 -2.05538 47959 ft 461 kts 339°
2026-04-26 13:36 53.69912 -2.07477 48201 ft 461 kts 339°
2026-04-26 13:37 53.72918 -2.09394 48456 ft 460 kts 339°
2026-04-26 13:37 53.75897 -2.11377 48633 ft 461 kts 337°
2026-04-26 13:37 53.78888 -2.13430 48819 ft 462 kts 338°
2026-04-26 13:37 53.81868 -2.15419 49015 ft 462 kts 338°
2026-04-26 13:38 53.84883 -2.17456 49000 ft 467 kts 338°
2026-04-26 13:38 53.91012 -2.21688 49005 ft 477 kts 338°
2026-04-26 13:39 53.97176 -2.25901 49003 ft 486 kts 338°
2026-04-26 13:39 54.03500 -2.30272 49004 ft 492 kts 338°
2026-04-26 13:40 54.09833 -2.34651 49003 ft 490 kts 338°
2026-04-26 13:40 54.16135 -2.39030 48997 ft 490 kts 338°
2026-04-26 13:41 54.22512 -2.43457 49005 ft 498 kts 338°
2026-04-26 13:41 54.28985 -2.47971 49006 ft 506 kts 338°
2026-04-26 13:42 54.35557 -2.52569 49001 ft 514 kts 338°
2026-04-26 13:42 54.42285 -2.57291 49006 ft 522 kts 337°
2026-04-26 13:43 54.48998 -2.62022 49011 ft 528 kts 337°
2026-04-26 13:43 54.55842 -2.66865 49008 ft 530 kts 337°
2026-04-26 13:44 54.62645 -2.71698 49005 ft 527 kts 337°
2026-04-26 13:44 54.69418 -2.76527 49001 ft 526 kts 337°
2026-04-26 13:45 54.75361 -2.80775 49000 ft 527 kts 337°
2026-04-26 13:45 54.80972 -2.84798 49004 ft 528 kts 337°
2026-04-26 13:46 54.87804 -2.89725 49004 ft 526 kts 337°
2026-04-26 13:46 54.94132 -2.94293 49001 ft 526 kts 337°
2026-04-26 13:47 55.00972 -2.99258 49018 ft 527 kts 337°
2026-04-26 13:47 55.07752 -3.04191 49110 ft 528 kts 336°
2026-04-26 13:48 55.14524 -3.09133 49117 ft 527 kts 336°
2026-04-26 13:48 55.17942 -3.11632 49257 ft 523 kts 336°
2026-04-26 13:48 55.21292 -3.14089 49434 ft 520 kts 336°
2026-04-26 13:48 55.24614 -3.16535 49593 ft 516 kts 336°
2026-04-26 13:49 55.27917 -3.18968 49749 ft 513 kts 336°
2026-04-26 13:49 55.31199 -3.21388 49903 ft 510 kts 336°
2026-04-26 13:49 55.34452 -3.23796 50060 ft 507 kts 336°
2026-04-26 13:49 55.37693 -3.26207 50214 ft 503 kts 336°
2026-04-26 13:50 55.40914 -3.28600 50371 ft 500 kts 336°
2026-04-26 13:50 55.43988 -3.30872 50527 ft 497 kts 336°
2026-04-26 13:50 55.47362 -3.33042 50660 ft 495 kts 343°
2026-04-26 13:50 55.50739 -3.34234 50793 ft 494 kts 352°
2026-04-26 13:51 55.54164 -3.34479 50966 ft 492 kts
2026-04-26 13:51 55.57556 -3.33846 51206 ft 487 kts
2026-04-26 13:51 55.60887 -3.32806 51260 ft 487 kts
2026-04-26 13:52 55.67490 -3.30886 51273 ft 485 kts
2026-04-26 13:52 55.74263 -3.29475 51272 ft 485 kts
2026-04-26 13:53 55.80944 -3.27677 51269 ft 485 kts
2026-04-26 13:53 55.87685 -3.26133 51269 ft 486 kts
2026-04-26 13:54 55.93687 -3.24588 51270 ft 486 kts
2026-04-26 13:54 56.06608 -3.21412 51270 ft 487 kts
2026-04-26 13:55 56.34631 -3.14419 51250 ft 490 kts
2026-04-26 13:55 56.42532 -3.14215 51258 ft 486 kts 350°
2026-04-26 13:56 56.50105 -3.16633 51273 ft 486 kts 350°
2026-04-26 13:56 56.58520 -3.18662 51276 ft 487 kts 349°
2026-04-26 13:57 56.68603 -3.21466 51260 ft 488 kts 351°
2026-04-26 13:57 56.75315 -3.23279 51254 ft 488 kts 350°
2026-04-26 13:58 56.82040 -3.25122 51256 ft 488 kts 351°
2026-04-26 13:58 56.89042 -3.27022 51137 ft 491 kts 350°
2026-04-26 13:58 56.92496 -3.27982 50760 ft 500 kts 350°
2026-04-26 13:59 56.95927 -3.28920 50412 ft 508 kts 350°
2026-04-26 13:59 56.99456 -3.29879 50065 ft 516 kts 350°
2026-04-26 13:59 57.03033 -3.30865 49720 ft 523 kts 350°
2026-04-26 14:00 57.13996 -3.33898 49248 ft 532 kts 350°
2026-04-26 14:00 57.17665 -3.34915 49244 ft 532 kts 350°
2026-04-26 14:01 57.24990 -3.36960 49232 ft 532 kts 350°
2026-04-26 14:01 57.32371 -3.39019 49231 ft 532 kts 349°
2026-04-26 14:02 57.39684 -3.41074 49226 ft 531 kts 349°
2026-04-26 14:02 57.47003 -3.43135 49224 ft 531 kts 349°
2026-04-26 14:03 57.54310 -3.45203 49224 ft 530 kts 349°
2026-04-26 14:03 57.61596 -3.47273 49224 ft 530 kts 349°
2026-04-26 14:04 57.68854 -3.49344 49214 ft 530 kts 349°
2026-04-26 14:04 57.76140 -3.51431 49213 ft 529 kts 349°
2026-04-26 14:05 57.83466 -3.53537 49217 ft 525 kts 349°
2026-04-26 14:05 57.86999 -3.54555 48271 ft 520 kts 349°
2026-04-26 14:05 57.90673 -3.55621 47242 ft 541 kts 349°
2026-04-26 14:06 57.98032 -3.57750 47236 ft 530 kts 349°
2026-04-26 14:06 58.05313 -3.59875 47235 ft 528 kts 349°
2026-04-26 14:07 58.12522 -3.61980 47237 ft 532 kts 349°
2026-04-26 14:07 58.19993 -3.64174 47235 ft 535 kts 349°
2026-04-26 14:08 58.27366 -3.66349 47235 ft 536 kts 349°
2026-04-26 14:08 58.33590 -3.68191 47230 ft 534 kts 349°
2026-04-26 14:09 58.40899 -3.70364 47233 ft 533 kts 349°
2026-04-26 14:09 58.48291 -3.72569 47233 ft 534 kts 349°
2026-04-26 14:10 58.55645 -3.74774 47231 ft 534 kts 349°
2026-04-26 14:10 58.62995 -3.76985 47234 ft 534 kts 349°
2026-04-26 14:11 58.74018 -3.80315 46279 ft 525 kts 349°
2026-04-26 14:11 58.77652 -3.81417 44697 ft 532 kts 349°
2026-04-26 14:11 58.81308 -3.82532 43337 ft 531 kts 348°
2026-04-26 14:12 58.86668 -3.84169 41560 ft 538 kts 348°
2026-04-26 14:12 58.91429 -3.85625 41255 ft 528 kts 348°
2026-04-26 14:12 58.99792 -3.89829 41229 ft 515 kts 333°
2026-04-26 14:12 59.20592 -4.10414 41244 ft 518 kts 332°
2026-04-26 14:13 59.53850 -4.44162 41228 ft 524 kts 330°
2026-04-26 14:14 59.60339 -4.50529 41229 ft 523 kts 329°
2026-04-26 14:14 59.67562 -4.58067 41235 ft 523 kts 330°
2026-04-26 14:15 59.93418 -4.84725 41247 ft 524 kts 329°
2026-04-26 14:15 60.49009 -5.43745 41230 ft 525 kts 329°
2026-04-26 14:16 60.89562 -5.88201 39315 ft 407 kts 328°
2026-04-26 14:16 61.25557 -6.40748 35767 ft 519 kts 322°
2026-04-26 14:16 61.50633 -6.80816 32544 ft 358 kts 326°
2026-04-26 14:16 61.69481 -7.12272 30826 ft 440 kts 319°
2026-04-26 14:17 61.74703 -7.19415 30564 ft 433 kts 327°
2026-04-26 14:17 61.79532 -7.26577 30143 ft 400 kts 318°
2026-04-26 14:17 61.83516 -7.33711 27211 ft 348 kts 320°
2026-04-26 14:17 61.87234 -7.39607 20733 ft 326 kts 320°
2026-04-26 14:18 61.90766 -7.45568 12659 ft 315 kts 319°
2026-04-26 14:18 61.94323 -7.51866 6940 ft 363 kts 314°
2026-04-26 14:18 61.97650 -7.58920 5542 ft 304 kts 313°
2026-04-26 14:18 62.00165 -7.64594 5392 ft 232 kts 310°
2026-04-26 14:19 62.02288 -7.69482 5503 ft 224 kts 310°
2026-04-26 14:19 62.04466 -7.74514 5515 ft 234 kts 310°
2026-04-26 14:19 62.06702 -7.79693 5524 ft 240 kts 310°
2026-04-26 14:19 62.08971 -7.84957 5075 ft 242 kts 310°
2026-04-26 14:20 62.11403 -7.90654 3698 ft 265 kts 310°
2026-04-26 14:20 62.14232 -7.93751 3584 ft 228 kts 12°
2026-04-26 14:20 62.16032 -7.88893 3682 ft 215 kts 84°
2026-04-26 14:20 62.15593 -7.82793 3722 ft 212 kts 127°
2026-04-26 14:21 62.14164 -7.77342 3722 ft 207 kts 114°
2026-04-26 14:21 62.13122 -7.71550 3720 ft 208 kts 115°
2026-04-26 14:21 62.12026 -7.65808 3721 ft 208 kts 115°
2026-04-26 14:21 62.10942 -7.60094 3707 ft 204 kts 115°
2026-04-26 14:22 62.10024 -7.54141 3164 ft 202 kts 111°
2026-04-26 14:22 62.09611 -7.51153 2679 ft 154 kts 108°
2026-04-26 14:22 62.09348 -7.49005 2523 ft 141 kts 107°
2026-04-26 14:22 62.09127 -7.47056 1793 ft 128 kts 106°
2026-04-26 14:23 62.08874 -7.45055 1156 ft 147 kts 106°
2026-04-26 14:23 62.08650 -7.43147 1219 ft 121 kts 104°
2026-04-26 14:23 62.08469 -7.41407 1168 ft 121 kts 103°
2026-04-26 14:23 62.08307 -7.39700 1148 ft 117 kts 101°
2026-04-26 14:24 62.08153 -7.37930 1178 ft 123 kts 102°
2026-04-26 14:24 62.07995 -7.36145 1183 ft 122 kts 103°
2026-04-26 14:24 62.07778 -7.34322 995 ft 123 kts 105°
2026-04-26 14:24 62.07527 -7.32587 690 ft 121 kts 110°
2026-04-26 14:25 62.07180 -7.31021 537 ft 115 kts 117°
2026-04-26 14:25 62.06803 -7.29511 351 ft 116 kts 117°
2026-04-26 14:25 62.06446 -7.28070 288 ft 94 kts 117°
2026-04-26 14:25 62.06244 -7.27258 277 ft 37 kts 118°
2026-04-26 14:26 62.06152 -7.26938 271 ft 13 kts 110°
2026-04-26 14:26 62.06163 -7.26941 271 ft 11 kts 300°
2026-04-26 14:26 62.06207 -7.27116 274 ft 12 kts 297°
2026-04-26 14:26 62.06251 -7.27292 278 ft 34 kts 298°
2026-04-26 14:27 62.06380 -7.27805 292 ft 30 kts 297°
2026-04-26 14:27 62.06455 -7.28105 286 ft 13 kts 302°
2026-04-26 14:27 62.06547 -7.28106 284 ft 4 kts 19°
2026-04-26 14:27 62.06550 -7.28104 284 ft 2 kts 19°
2026-04-26 14:28 62.06578 -7.28085 285 ft 5 kts 44°
2026-04-26 14:28 62.06590 -7.28019 286 ft 3 kts 51°
2026-04-26 14:28 62.06597 -7.28008 286 ft 0 kts 32°